date,time,DOY,Ta_1_1_1,Pa_1_1_1,RH_1_1_1,LWin_1_1_1,LWout_1_1_1,SWin_1_1_1,SWout_1_1_1,PPFD_1_1_1,MWS_1_1_1,WD_1_1_1,SWC_1_1_1,Ts_1_1_1
[yyyy-mm-dd],[HH:MM],[ddd.ddd],[K],[Pa],[%],[W+1m-2],[W+1m-2],[W+1m-2],[W+1m-2],[µmol+1m-2s-1],[m+1s-1],[deg],[m+3m-3],[K]
2018-09-11,00:30,254.020,290.08166666666676,94785.699999999997,61.001999999999995,395.95266666666663,338.04866666666658,2.3270000000000000,4.6280000000000001,18.302333333333333,3.2033333333333336,135.30033333333333,0.24000000000000016,287.32066666666668
2018-09-11,01:00,254.041,289.42333333333329,94792.000000000000,64.119333333333344,393.29866666666669,352.54300000000001,0.52766666666666662,-2.5016666666666660,0.50433333333333341,3.3533333333333331,161.25600000000000,0.24000000000000016,287.30866666666680
2018-09-11,01:30,254.062,289.16333333333324,94813.500000000000,63.576000000000001,392.90333333333336,355.23633333333339,0.57833333333333337,-2.2676666666666665,2.70000000000000101E-002,3.6266666666666665,164.63400000000001,0.24000000000000016,287.28133333333341
2018-09-11,02:00,254.083,289.19000000000000,94845.866666666669,60.978000000000002,393.61466666666666,356.71833333333336,0.52966666666666662,-2.1393333333333326,1.26666666666666698E-002,4.2766666666666664,175.11099999999999,0.24000000000000016,287.24599999999992
2018-09-11,02:30,254.104,288.81900000000007,94858.866666666669,61.147666666666652,390.52199999999993,337.68299999999994,0.47833333333333328,-3.3893333333333335,2.76666666666666693E-002,4.1100000000000012,169.46599999999998,0.24000000000000016,287.20799999999997
2018-09-11,03:00,254.124,288.40766666666661,94854.866666666669,62.841333333333345,387.74433333333332,336.70233333333334,0.63066666666666638,-3.1949999999999998,3.40000000000000024E-002,3.8800000000000008,161.25533333333334,0.24000000000000016,287.16366666666659
2018-09-11,03:30,254.145,288.17700000000002,94849.899999999994,64.470999999999989,386.71899999999994,336.44466666666665,0.66866666666666663,-3.1053333333333333,4.03333333333333460E-002,3.8833333333333333,157.16700000000000,0.24000000000000016,287.11866666666668
2018-09-11,04:00,254.166,287.96233333333333,94860.333333333328,66.230333333333334,386.09733333333332,336.40766666666673,0.69066666666666665,-2.9520000000000000,3.86666666666666756E-002,4.0599999999999996,164.87699999999998,0.24000000000000016,287.07133333333331
2018-09-11,04:30,254.187,287.84899999999988,94873.266666666663,67.324666666666673,385.61566666666670,336.62566666666675,0.71699999999999986,-2.8453333333333335,1.40000000000000055E-002,4.2800000000000011,161.37800000000001,0.24000000000000016,287.01800000000009
2018-09-11,05:00,254.208,287.57133333333337,94887.933333333334,68.733333333333334,384.36533333333330,336.37799999999999,0.53966666666666674,-2.9203333333333337,1.20000000000000002E-002,4.0866666666666660,159.82233333333335,0.24000000000000016,286.96966666666674
2018-09-11,05:30,254.229,287.27666666666676,94902.333333333328,70.354666666666674,383.33500000000004,341.72800000000001,0.51333333333333331,-2.4626666666666663,5.00000000000000010E-003,3.8833333333333342,170.44566666666668,0.24000000000000016,286.92266666666660
2018-09-11,06:00,254.249,287.13799999999998,94912.033333333340,71.631666666666661,383.73399999999987,361.51066666666662,0.40199999999999997,-1.2053333333333334,3.33333333333333398E-002,3.5966666666666667,160.04466666666664,0.24000000000000016,286.87966666666665
2018-09-11,06:30,254.270,287.23666666666674,94919.800000000003,71.562333333333342,384.47700000000003,358.38166666666683,0.25533333333333336,-1.4560000000000000,2.56666666666666744E-002,3.9033333333333342,173.57800000000000,0.24000000000000016,286.83966666666663
2018-09-11,07:00,254.291,287.14999999999992,94916.866666666669,72.070333333333338,383.38100000000009,347.66999999999996,0.50600000000000001,-1.9516666666666664,3.13333333333333380E-002,4.0066666666666659,171.41100000000000,0.24000000000000016,286.80400000000009
2018-09-11,07:30,254.312,287.24199999999996,94924.433333333334,72.115333333333325,384.80566666666670,365.11133333333339,0.47433333333333333,-0.95466666666666666,3.36666666666666711E-002,4.0266666666666655,177.81133333333329,0.24000000000000016,286.77500000000020
2018-09-11,08:00,254.333,287.65399999999994,94933.433333333334,70.938333333333333,387.90866666666676,380.42399999999992,0.23700000000000007,-0.21600000000000000,4.60000000000000131E-002,3.9199999999999995,175.55566666666667,0.24000000000000016,286.74799999999993
2018-09-11,08:30,254.354,287.97733333333343,94933.933333333334,70.192000000000007,389.50566666666657,378.86300000000000,0.21266666666666662,-0.46366666666666673,5.43333333333333585E-002,4.0699999999999994,178.12199999999999,0.24000000000000016,286.72933333333339
2018-09-11,09:00,254.374,288.24766666666670,94938.399999999994,69.523666666666671,390.88499999999993,380.40033333333326,0.25966666666666666,-0.46833333333333321,5.63333333333333533E-002,3.7000000000000002,173.40033333333335,0.24000000000000016,286.71866666666665
2018-09-11,09:30,254.395,288.52566666666678,94953.399999999994,68.776666666666657,392.69333333333338,385.69066666666669,0.11700000000000002,-0.31966666666666671,6.53333333333333682E-002,4.0933333333333328,167.85566666666668,0.24000000000000016,286.71266666666668
2018-09-11,10:00,254.416,288.59533333333343,94950.899999999994,68.930000000000007,392.77633333333341,381.05933333333331,6.70000000000000040E-002,-0.70266666666666644,5.93333333333333560E-002,3.9233333333333333,177.64366666666666,0.24000000000000016,286.71566666666678
2018-09-11,10:30,254.437,288.47800000000007,94943.866666666669,69.915666666666667,391.93199999999996,379.73300000000000,1.50000000000000081E-002,-0.80233333333333334,4.20000000000000165E-002,3.2433333333333341,162.55633333333336,0.24000000000000016,286.72300000000007
2018-09-11,11:00,254.458,288.31000000000006,94940.000000000000,71.449000000000012,391.09000000000003,380.80599999999998,7.99999999999998976E-003,-0.70299999999999985,5.06666666666666862E-002,3.5566666666666662,157.91133333333335,0.24000000000000016,286.73833333333329
2018-09-11,11:30,254.479,287.98999999999995,94941.033333333340,74.348999999999975,388.85766666666666,366.46733333333327,0.12733333333333335,-0.64699999999999991,1.7883333333333336,3.1733333333333329,127.74466666666666,0.24000000000000016,286.74866666666662
2018-09-11,12:00,254.499,287.77666666666659,94961.133333333331,75.372666666666689,387.68200000000007,364.61233333333342,1.9139999999999999,9.5999999999999996,23.096666666666668,3.1866666666666665,120.27799999999999,0.24000000000000016,286.76033333333351
2018-09-11,12:30,254.520,288.02666666666681,94996.133333333331,73.998999999999995,389.55633333333321,362.31433333333331,6.6203333333333338,39.919333333333334,83.187666666666658,3.4633333333333334,149.02233333333334,0.24000000000000016,286.76900000000006
2018-09-11,13:00,254.541,288.15999999999991,95015.333333333328,73.838666666666683,390.06766666666675,347.11633333333339,14.116000000000003,88.474666666666664,179.32599999999999,3.2599999999999993,120.24499999999999,0.24000000000000016,286.77833333333342
2018-09-11,13:30,254.562,288.79433333333333,95029.899999999994,72.112000000000023,397.09300000000002,350.03366666666676,45.074666666666666,260.44566666666663,471.20833333333320,3.5099999999999993,109.63333333333334,0.24000000000000016,286.78633333333335
2018-09-11,14:00,254.583,289.79333333333341,95039.899999999994,69.765333333333317,404.20833333333337,356.32833333333343,60.067000000000007,361.20666666666671,668.39733333333322,3.6033333333333331,144.67800000000000,0.24000000000000016,286.81099999999998
2018-09-11,14:30,254.604,290.68400000000008,95039.766666666663,67.852666666666664,409.83033333333333,358.86366666666675,69.670666666666648,430.26533333333344,808.30499999999995,4.2566666666666668,155.81133333333335,0.24000000000000016,286.84300000000007
2018-09-11,15:00,254.624,291.49866666666668,95043.366666666669,66.477000000000004,415.27566666666661,362.82333333333321,81.080000000000027,510.77866666666654,981.50099999999998,4.3400000000000007,135.63299999999998,0.24000000000000016,286.89799999999997
2018-09-11,15:30,254.645,292.47733333333338,95039.966666666660,64.786666666666662,421.85800000000006,367.33200000000005,90.596333333333348,582.88033333333340,1151.1303333333335,4.3666666666666680,141.82133333333331,0.24000000000000016,286.97333333333336
2018-09-11,16:00,254.666,293.35999999999996,95038.899999999994,63.658333333333317,428.13733333333334,371.70333333333315,98.739666666666636,644.43699999999990,1292.6293333333333,3.7099999999999995,127.27833333333334,0.24000000000000016,287.07233333333335
2018-09-11,16:30,254.687,294.17000000000002,95046.333333333328,61.396999999999998,433.16899999999993,375.55266666666677,104.72033333333334,693.54666666666651,1405.9636666666668,3.9633333333333329,136.50066666666666,0.23400000000000024,287.19099999999997
2018-09-11,17:00,254.708,294.80799999999999,95036.066666666666,59.443666666666672,436.70600000000002,378.23666666666662,110.04133333333337,729.28100000000006,1487.1796666666671,4.6799999999999988,159.77766666666668,0.23000000000000018,287.34399999999999
2018-09-11,17:30,254.729,295.32133333333331,95015.600000000006,57.695333333333345,439.33133333333336,380.64066666666662,112.97866666666668,752.59033333333343,1542.9410000000003,5.6800000000000006,162.18933333333334,0.23000000000000018,287.51733333333345
2018-09-11,18:00,254.749,296.04000000000008,94997.833333333328,55.551000000000009,443.74666666666678,384.09066666666661,117.67866666666666,775.28766666666672,1596.5043333333335,5.2999999999999989,155.47766666666666,0.23000000000000018,287.71100000000007
2018-09-11,18:30,254.770,296.45433333333341,94988.066666666666,53.547666666666672,445.44999999999993,389.95333333333326,115.84599999999998,756.57566666666673,1569.3203333333336,7.1500000000000004,160.21099999999998,0.23000000000000018,287.90699999999998
2018-09-11,19:00,254.791,296.22300000000007,94982.933333333334,54.516333333333328,442.12399999999997,399.48866666666669,88.190666666666672,571.60300000000018,1127.1576666666665,6.4999999999999991,155.33400000000000,0.23000000000000018,288.10300000000001
2018-09-11,19:30,254.812,296.13566666666674,94950.866666666669,55.072333333333333,442.07466666666664,394.69733333333335,97.579666666666697,621.14266666666663,1302.1176666666665,6.9500000000000002,155.82266666666666,0.23000000000000018,288.27600000000007
2018-09-11,20:00,254.833,296.23266666666677,94915.033333333340,54.792999999999999,442.05033333333330,390.05433333333337,91.670000000000044,581.89766666666651,1211.4376666666665,7.0333333333333341,144.48866666666666,0.23000000000000018,288.43933333333331
2018-09-11,20:30,254.854,296.06433333333337,94889.466666666660,54.937666666666672,440.97333333333336,386.78633333333346,90.731666666666698,555.77766666666673,1142.0013333333336,6.6500000000000004,152.77766666666670,0.23000000000000018,288.58966666666669
2018-09-11,21:00,254.874,296.25933333333347,94877.433333333334,53.061000000000000,442.10300000000018,381.93766666666670,94.607666666666688,557.62400000000002,1176.4873333333333,7.2466666666666653,156.03399999999999,0.23000000000000018,288.73166666666663
2018-09-11,21:30,254.895,296.07766666666663,94872.100000000006,53.727333333333334,439.23166666666663,378.87800000000004,71.249333333333354,412.89133333333336,882.67733333333342,7.3633333333333351,157.61099999999999,0.23000000000000018,288.85233333333332
2018-09-11,22:00,254.916,296.14566666666656,94863.266666666663,52.986999999999988,439.28899999999999,375.61100000000005,72.862666666666655,389.34066666666666,823.28133333333324,7.1299999999999999,157.49933333333331,0.23000000000000018,288.92866666666657
2018-09-11,22:30,254.937,296.00799999999992,94853.300000000003,52.232333333333337,437.46599999999984,371.53733333333332,61.102666666666657,301.15500000000003,638.60333333333324,6.6933333333333334,156.96633333333332,0.23000000000000018,288.98499999999990
2018-09-11,23:00,254.958,295.79000000000008,94850.033333333340,51.254000000000012,434.94866666666672,366.76533333333344,47.996333333333332,212.61433333333338,442.25766666666664,5.8633333333333315,162.50066666666669,0.23000000000000018,289.01766666666674
2018-09-11,23:30,254.979,295.31766666666664,94848.433333333334,53.015999999999991,430.72333333333336,361.75333333333333,33.793999999999997,127.14033333333334,90.018999999999991,4.5866666666666669,155.80033333333333,0.23000000000000018,289.02733333333333
2018-09-12,00:00,255.000,294.50799999999992,94831.666666666672,55.168333333333337,424.17300000000006,355.31799999999993,14.272666666666664,42.581999999999994,13.748333333333335,5.1933333333333334,153.17833333333334,0.23000000000000018,289.02000000000015
